Atwater, CA

2:52 AM PDT on May 30, 2017 (GMT -0700)
Castle

Weather History for KMER - April, 2014

Change the Weather History Date:

Wednesday, April 2, 2014

  Actual Average (KMCE) Record (KMCE)
Temperature  
Mean Temperature 53 °F -  
Max Temperature 62 °F 71 °F 84 °F (2000)
Min Temperature 44 °F 42 °F 33 °F (1999)
Degree Days  
Heating Degree Days 12    
Growing Degree Days 3 (Base 50)    
Moisture  
Dew Point 45 °F    
Average Humidity 90    
Maximum Humidity 100    
Minimum Humidity 45    
Precipitation  
Precipitation 0.00 in - - ()
Sea Level Pressure  
Sea Level Pressure 30.01 in    
Wind  
Wind Speed 4 mph (ENE)    
Max Wind Speed 12 mph    
Max Gust Speed -    
Visibility 10 miles    
Events      
Averages and records for this station are not official NWS values.
T = Trace of Precipitation, MM = Missing Value Source: NWS Daily Summary

Daily Weather History Graph

Daily Weather History Graph

Search for Another Location

Airport or City:

Trip Planner

Search our weather history database for the weather conditions in past years. The results will help you decide how hot, cold, wet, or windy it might be!

Date:

Astronomy

Apr. 02, 2014 Rise Set
Actual Time 6:46 AM PDT 7:25 PM PDT
Civil Twilight 6:19 AM PDT 7:52 PM PDT
Nautical Twilight 5:48 AM PDT 8:23 PM PDT
Astronomical Twilight 5:16 AM PDT 8:55 PM PDT
Moon 8:37 AM PDT (4/2) 10:50 PM PDT (4/2)
Length of Visible Light 13h 32m
Length of Day
12h 39m
Waxing Crescent, 11% of the Moon is Illuminated
Apr 2
Waxing Crescent
Apr 7
First Quarter
Apr 15
Full
Apr 22
Last Quarter
Apr 28
New

Hourly Weather History & Observations

Time (PDT) Temp. Windchill Dew Point Humidity Pressure Visibility Wind Dir Wind Speed Gust Speed Precip Events Conditions
12:15 AM 44.6 °F - 44.6 °F 100% 29.91 in 10.0 mi Calm Calm - N/A   Clear
12:35 AM 44.6 °F 40.7 °F 44.6 °F 100% 29.91 in 10.0 mi SE 6.9 mph - N/A   Scattered Clouds
12:55 AM 44.6 °F 41.4 °F 44.6 °F 100% 29.91 in 10.0 mi ESE 5.8 mph - N/A   Mostly Cloudy
1:15 AM 44.6 °F 43.1 °F 44.6 °F 100% 29.91 in 10.0 mi ESE 3.5 mph - N/A   Partly Cloudy
1:35 AM 44.6 °F - 44.6 °F 100% 29.92 in 10.0 mi Calm Calm - N/A   Clear
1:55 AM 44.6 °F 43.1 °F 44.6 °F 100% 29.92 in 10.0 mi SSE 3.5 mph - N/A   Scattered Clouds
2:15 AM 44.6 °F 42.2 °F 44.6 °F 100% 29.93 in 10.0 mi SSE 4.6 mph - N/A   Mostly Cloudy
2:35 AM 46.4 °F 44.3 °F 46.4 °F 100% 29.93 in 10.0 mi SSE 4.6 mph - N/A   Overcast
2:55 AM 46.4 °F 43.5 °F 46.4 °F 100% 29.93 in 10.0 mi SSE 5.8 mph - N/A   Overcast
3:15 AM 46.4 °F 43.5 °F 46.4 °F 100% 29.93 in 10.0 mi South 5.8 mph - N/A   Overcast
3:35 AM 46.4 °F 44.3 °F 46.4 °F 100% 29.93 in 10.0 mi SSW 4.6 mph - N/A   Overcast
3:55 AM 46.4 °F 42.4 °F 46.4 °F 100% 29.93 in 10.0 mi South 8.1 mph - N/A   Overcast
4:15 AM 44.6 °F 41.4 °F 44.6 °F 100% 29.93 in 10.0 mi South 5.8 mph - N/A   Mostly Cloudy
5:35 AM 44.6 °F 42.2 °F 44.6 °F 100% 29.94 in 10.0 mi SE 4.6 mph - N/A   Overcast
5:55 AM 44.6 °F 40.7 °F 44.6 °F 100% 29.94 in 10.0 mi SE 6.9 mph - N/A   Overcast
6:55 AM 44.6 °F 41.4 °F 44.6 °F 100% 29.97 in 10.0 mi SE 5.8 mph - N/A   Mostly Cloudy
9:45 AM 51.8 °F - 50.0 °F 94% 30.03 in 10.0 mi Calm Calm - N/A   Mostly Cloudy
10:45 AM 55.4 °F - 50.0 °F 82% 30.06 in 10.0 mi Variable 3.5 mph - N/A   Overcast
12:50 PM 60.8 °F - 46.4 °F 59% 30.06 in 10.0 mi NNW 8.1 mph - N/A   Mostly Cloudy
1:50 PM 57.2 °F - 42.8 °F 59% 30.06 in 10.0 mi North 8.1 mph - N/A   Mostly Cloudy
2:45 PM 60.8 °F - 42.8 °F 52% 30.06 in 10.0 mi NNW 9.2 mph - N/A   Mostly Cloudy
3:45 PM 62.6 °F - 42.8 °F 48% 30.05 in 10.0 mi NNW 11.5 mph - N/A   Mostly Cloudy
4:45 PM 62.6 °F - 41.0 °F 45% 30.05 in 10.0 mi NNW 11.5 mph - N/A   Scattered Clouds
5:45 PM 60.8 °F - 39.2 °F 45% 30.05 in 10.0 mi North 9.2 mph - N/A   Clear
6:45 PM 57.2 °F - 39.2 °F 51% 30.05 in 10.0 mi North 10.4 mph - N/A   Clear
8:15 PM 51.8 °F - 48.2 °F 88% 30.07 in 10.0 mi NNW 5.8 mph - N/A   Clear
8:35 PM 50.0 °F - 48.2 °F 94% 30.07 in 10.0 mi North 4.6 mph - N/A   Clear
8:45 PM 50.0 °F - 48.2 °F 94% 30.08 in 10.0 mi NNW 8.1 mph - N/A   Clear
8:55 PM 48.2 °F - 48.2 °F 100% 30.08 in 10.0 mi North 6.9 mph - N/A   Clear
9:15 PM 48.2 °F - 48.2 °F 100% 30.08 in 10.0 mi North 3.5 mph - N/A   Clear
9:35 PM 50.0 °F - 48.2 °F 94% 30.09 in 10.0 mi North 4.6 mph - N/A   Clear
9:55 PM 48.2 °F - 48.2 °F 100% 30.09 in 10.0 mi North - - N/A   Clear
10:15 PM 46.4 °F - 46.4 °F 100% 30.09 in 10.0 mi Calm Calm - N/A   Clear
10:35 PM 46.4 °F - 46.4 °F 100% 30.10 in 10.0 mi Calm Calm - N/A   Clear
10:55 PM 46.4 °F - 46.4 °F 100% 30.10 in 10.0 mi Calm Calm - N/A   Clear
11:15 PM 44.6 °F - 44.6 °F 100% 30.10 in 10.0 mi Calm Calm - N/A   Clear
11:35 PM 44.6 °F - 44.6 °F 100% 30.10 in 10.0 mi Calm Calm - N/A   Clear
11:55 PM 44.6 °F - 44.6 °F 100% 30.10 in 10.0 mi Calm Calm - N/A   Clear